TheGetRank SiteMap Page 4881
Home 4831 4832 4833 4834 4835 4836 4837 4838 4839 4840 4841 4842 4843 4844 4845 4846 4847 4848 4849 4850 4851 4852 4853 4854 4855 4856 4857 4858 4859 4860 4861 4862 4863 4864 4865 4866 4867 4868 4869 4870 4871 4872 4873 4874 4875 4876 4877 4878 4879 4880 4881 4882 4883 4884 4885 4886 4887 4888 4889 4890 4891 4892 4893 4894 4895 4896 4897 4898 4899 4900 4901 4902 4903 4904 4905 4906 4907 4908 4909 4910 4911 4912 4913 4914 4915 4916 4917 4918 4919 4920 4921 4922 4923 4924 4925 4926 4927 4928 4929 4930 4931
S.NO. Website Pagerank Alexa Rank Last Updated
4880000 anctilfoundation.org 0 No Rank 2011-12-10 06:56:52
4880001 hkm-tirupati.com 0 No Rank 2011-12-10 06:56:53
4880002 himafund.org 0 No Rank 2011-12-10 06:56:54
4880003 hotelsplit.info 0 No Rank 2011-12-10 06:56:58
4880004 hologramoflife.com 0 No Rank 2011-12-10 06:56:59
4880005 andersonvet.com 0 No Rank 2011-12-10 06:57:00
4880006 harolddavis.net 0 No Rank 2011-12-10 06:57:01
4880007 andraesh-d.com 0 10994266 2011-12-10 06:57:04
4880008 hongkongflowerstore.com 0 9407824 2011-12-10 06:57:06
4880009 andersonteaparty.org 0 22747729 2011-12-10 06:57:07
4880010 andrewtodd.com 0 19580744 2011-12-10 06:57:11
4880011 canmedlines.com 0 No Rank 2011-12-10 06:57:12
4880012 hongkonggiftshop.com 0 No Rank 2011-12-10 06:57:14
4880013 pickmeordie.com 0 No Rank 2011-12-10 06:57:14
4880014 andulky.parrotclub.sk 0 4205139 2011-12-10 06:57:15
4880015 akatumnuay.com 0 No Rank 2011-12-10 06:57:18
4880016 andyfischerandsons.com 0 10574890 2011-12-10 06:57:18
4880017 hongkongroses.com 0 9407825 2011-12-10 06:57:19
4880018 andypop.com 0 No Rank 2011-12-10 06:57:22
4880019 androidmobile.com.pl 0 3481583 2011-12-10 06:57:25
4880020 hopereignsranch.com 0 No Rank 2011-12-10 06:57:26
4880021 tippingzone.com 0 25770271 2011-12-10 06:57:26
4880022 logi-concept.com 0 No Rank 2011-12-10 06:57:29
4880023 sancarlosfun.com 0 No Rank 2011-12-10 06:57:30
4880024 hrreport.com 0 No Rank 2011-12-10 06:57:31
4880025 angelfirefoundation.org 0 No Rank 2011-12-10 06:57:32
4880026 standbytv.com.ar 0 No Rank 2011-12-10 06:57:35
4880027 angelo-bg.com 0 No Rank 2011-12-10 06:57:36
4880028 surecleaninc.com 0 No Rank 2011-12-10 06:57:37
4880029 hybridned.com 0 No Rank 2011-12-10 06:57:39
4880030 cheerleader-pussy.com 0 No Rank 2011-12-10 06:57:40
4880031 anglikankilisesi.org 0 No Rank 2011-12-10 06:57:41
4880032 ftp.rapidfile.ru 0 685879 2011-12-10 06:57:42
4880033 tvprogram.upc.cz 0 67812 2011-12-10 06:57:42
4880034 i-monk.net 0 No Rank 2011-12-10 06:57:44
4880035 mydaypicture.com 0 6188589 2011-12-10 06:57:45
4880036 petepolyakov.com 0 10214085 2011-12-10 06:57:46
4880037 ani-mero.com 0 No Rank 2011-12-10 06:57:46
4880038 chinesesite.net 0 14346922 2011-12-10 06:57:48
4880039 2012christianlouboutindiscount.com 0 8707126 2011-12-10 06:57:48
4880040 animalcontrolfairfax.com 0 No Rank 2011-12-10 06:57:49
4880041 alex.turnlav.net 0 No Rank 2011-12-10 06:57:49
4880042 davidfield.co.uk 0 No Rank 2011-12-10 06:57:51
4880043 bahimiron.com 0 No Rank 2011-12-10 06:57:53
4880044 animalinteraction.com 0 No Rank 2011-12-10 06:57:54
4880045 sports-schule.jp 0 No Rank 2011-12-10 06:57:57
4880046 anitasbeads.com 0 No Rank 2011-12-10 06:57:57
4880047 santacruzdsl.com 0 18188133 2011-12-10 06:57:58
4880048 raimondigolf.com 0 8536181 2011-12-10 06:57:58
4880049 biosig.net 0 16298451 2011-12-10 06:58:00
4880050 menforothers.org 0 No Rank 2011-12-10 06:58:00
4880051 filteryashar.com 0 16615320 2011-12-10 06:58:01
4880052 ankaraburunestetigi.net 0 No Rank 2011-12-10 06:58:04
4880053 bbgone.e-frank.com 0 No Rank 2011-12-10 06:58:05
4880054 hu.upcdirect.com 0 267136 2011-12-10 06:58:05
4880055 fbcnewboston.com 0 No Rank 2011-12-10 06:58:08
4880056 ankarafidan.net 0 No Rank 2011-12-10 06:58:10
4880057 bloodcancers.org 0 No Rank 2011-12-10 06:58:11
4880058 botterlaw.com 0 No Rank 2011-12-10 06:58:14
4880059 sk.upcdirect.com 0 267136 2011-12-10 06:58:15
4880060 burndvdvideo.net 0 No Rank 2011-12-10 06:58:16
4880061 anmar.iap.pl 0 95313 2011-12-10 06:58:18
4880062 boxallfamily.org 0 No Rank 2011-12-10 06:58:21
4880063 brownrowe.com 0 10473915 2011-12-10 06:58:23
4880064 justoneblock.org 0 No Rank 2011-12-10 06:58:26
4880065 chrisacheson.net 0 19938781 2011-12-10 06:58:28
4880066 fishandtrips.org 0 No Rank 2011-12-10 06:58:29
4880067 winstoday.info 0 No Rank 2011-12-10 06:58:30
4880068 carolinabridgeinc.com 0 No Rank 2011-12-10 06:58:31
4880069 anneezerbe.com 0 No Rank 2011-12-10 06:58:31
4880070 emigracja.com.pl 0 12743422 2011-12-10 06:58:33
4880071 carlenefrances.com 0 No Rank 2011-12-10 06:58:35
4880072 annelamberg.fi 0 No Rank 2011-12-10 06:58:35
4880073 anonimous-led.com 0 No Rank 2011-12-10 06:58:37
4880074 hengda-china.com 0 No Rank 2011-12-10 06:58:37
4880075 mooregallery.net 0 No Rank 2011-12-10 06:58:39
4880076 carusolaw.biz 0 15075976 2011-12-10 06:58:39
4880077 anschluss-frei.de 0 5018971 2011-12-10 06:58:43
4880078 dittolanding.com 0 12519657 2011-12-10 06:58:43
4880079 corephpdemos.com 0 77568 2011-12-10 06:58:43
4880080 casperholdings.com 0 No Rank 2011-12-10 06:58:45
4880081 womenshealthwise.info 0 No Rank 2011-12-10 06:58:48
4880082 somakinetics.com 0 18041757 2011-12-10 06:58:49
4880083 triso-projekt.pl 0 No Rank 2011-12-10 06:58:49
4880084 claytonjewelers.net 0 No Rank 2011-12-10 06:58:51
4880085 antiagingdrugs.info 0 No Rank 2011-12-10 06:58:51
4880086 silksowsongs.com 0 5183452 2011-12-10 06:58:52
4880087 antilles-mailing.com 0 No Rank 2011-12-10 06:58:54
4880088 chinchorreo.com 0 No Rank 2011-12-10 06:58:55
4880089 wheresshelly.com 0 No Rank 2011-12-10 06:58:56
4880090 hiba-alkawas.com 0 No Rank 2011-12-10 06:58:58
4880091 jackson-assoc.us 0 No Rank 2011-12-10 06:58:58
4880092 antiquefrenchmantels.com 0 No Rank 2011-12-10 06:58:58
4880093 unitedsucces.com 0 10849496 2011-12-10 06:59:00
4880094 antoniaharler.com 0 No Rank 2011-12-10 06:59:00
4880095 cocalgracias.org 0 20835058 2011-12-10 06:59:00
4880096 dayi-archi.myweb.lasegundaguerramundial.bligoo.es 0 46506 2011-12-10 06:59:01
4880097 coldrose.net 0 23580301 2011-12-10 06:59:03
4880098 crystal-sc.co.jp 0 2099142 2011-12-10 06:59:05
4880099 citizen-actu.com 0 18525454 2011-12-10 06:59:05
4880100 antumalal.com 0 3636817 2011-12-10 06:59:05
4880101 coloradoopenhouse.com 0 No Rank 2011-12-10 06:59:07
4880102 komachi-kk.co.jp 0 No Rank 2011-12-10 06:59:08
4880103 pauluugill.blogdrive.com 0 10004 2011-12-10 06:59:09
4880104 porady-finansowe.eu 0 No Rank 2011-12-10 06:59:09
4880105 apurojyuuken.com 0 No Rank 2011-12-10 06:59:11
4880106 anunleashedlife.com 0 No Rank 2011-12-10 06:59:12
4880107 coolshop-usa.net 0 No Rank 2011-12-10 06:59:13
4880108 softnetmedia.net 0 No Rank 2011-12-10 06:59:14
4880109 anusandhanplastic.com 0 No Rank 2011-12-10 06:59:15
4880110 dayi-archi.myweb.militaria-coleccionismo.lacoctelera.net 0 11257 2011-12-10 06:59:16
4880111 coloradogarlic.com 0 19334821 2011-12-10 06:59:18
4880112 anxietate.psihologia.info.ro 0 4273962 2011-12-10 06:59:20
4880113 logocreation.net 0 7755959 2011-12-10 06:59:21
4880114 mindylinkous.com 0 1360800 2011-12-10 06:59:21
4880115 dakotacatamarans.com 0 No Rank 2011-12-10 06:59:23
4880116 volanthevist.com 0 No Rank 2011-12-10 06:59:23
4880117 anyon.us 0 No Rank 2011-12-10 06:59:24
4880118 tokyoyomiuri.com 0 2440439 2011-12-10 06:59:25
4880119 syosenkyo-cc.com 0 4812661 2011-12-10 06:59:25
4880120 3gmodemstore.com 0 1198193 2011-12-10 06:59:25
4880121 anytimeanimalcontrol.com 0 No Rank 2011-12-10 06:59:26
4880122 dancerlogistics.com 0 No Rank 2011-12-10 06:59:27
4880123 carouselfund.org 0 15644438 2011-12-10 06:59:28
4880124 genertrading.com 0 No Rank 2011-12-10 06:59:28
4880125 anytimeclub.ro 0 8842870 2011-12-10 06:59:29
4880126 deborahjacobson.com 0 No Rank 2011-12-10 06:59:30
4880127 absolumentoo.com 0 No Rank 2011-12-10 06:59:33
4880128 johnmcgauley.com 0 11276371 2011-12-10 06:59:33
4880129 ville-crolles.fr 0 4881141 2011-12-10 06:59:34
4880130 digitrendcorp.com 0 No Rank 2011-12-10 06:59:34
4880131 ferretrescue.org 0 9877503 2011-12-10 06:59:35
4880132 apartment-key.com 0 2063685 2011-12-10 06:59:38
4880133 apartments-vilma-murter.com 0 No Rank 2011-12-10 06:59:43
4880134 e-frank.com 0 No Rank 2011-12-10 06:59:43
4880135 dpbasenjis.com 0 No Rank 2011-12-10 06:59:46
4880136 eatwicked.com 0 4620872 2011-12-10 06:59:49
4880137 gaschler-gmbh.de 0 No Rank 2011-12-10 06:59:50
4880138 k-orthopedie.com 0 No Rank 2011-12-10 06:59:51
4880139 apartrestaurant-zamocek.menu.atlas.sk 0 7423 2011-12-10 06:59:51
4880140 rhealbougie.info 0 No Rank 2011-12-10 06:59:52
4880141 ericvincentmusic.com 0 No Rank 2011-12-10 06:59:53
4880142 apersonalinjurylawyersource.com 0 5493935 2011-12-10 06:59:54
4880143 kitanomori-cc.jp 0 No Rank 2011-12-10 06:59:56
4880144 missionrugby.com 0 12487980 2011-12-10 06:59:56
4880145 healthybegin.com 0 No Rank 2011-12-10 06:59:56
4880146 aplev.com 0 7545341 2011-12-10 06:59:57
4880147 firstlutheranchurch.com 0 17772256 2011-12-10 07:00:00
4880148 vuc.osobnosti.sk 0 520212 2011-12-10 07:00:04
4880149 alsace-vitae.com 0 No Rank 2011-12-10 07:00:05
4880150 approvedyachts.com 0 No Rank 2011-12-10 07:00:06
4880151 footloosemassage.com 0 19164920 2011-12-10 07:00:09
4880152 surf-angebote.de 0 1388214 2011-12-10 07:00:12
4880153 asianmissxxx.com 0 No Rank 2011-12-10 07:00:14
4880154 cn.lake-side.com 0 9106290 2011-12-10 07:00:15
4880155 aqualand.es 0 749186 2011-12-10 07:00:15
4880156 fredekman.com 0 No Rank 2011-12-10 07:00:17
4880157 aquarium-winkel.be 0 No Rank 2011-12-10 07:00:20
4880158 gatewaydubbo.com.au 0 No Rank 2011-12-10 07:00:24
4880159 aquariumkit.org 0 No Rank 2011-12-10 07:00:25
4880160 fortmaywood.com 0 No Rank 2011-12-10 07:00:28
4880161 highconversionrates.com 0 No Rank 2011-12-10 07:00:30
4880162 wunschkeramik.de 0 24339811 2011-12-10 07:00:30
4880163 aquastella.ru 0 No Rank 2011-12-10 07:00:32
4880164 northridgepc.org 0 19430633 2011-12-10 07:00:32
4880165 ak-grundlagen.de 0 2077777 2011-12-10 07:00:34
4880166 aqueducvideotaurin.com 0 No Rank 2011-12-10 07:00:34
4880167 guatelindacenter.com 0 8549309 2011-12-10 07:00:35
4880168 brbindustries.fr 0 16611043 2011-12-10 07:00:36
4880169 gstphoto.com 0 No Rank 2011-12-10 07:00:39
4880170 arabskitlumaczenia.com 0 No Rank 2011-12-10 07:00:39
4880171 angelicadiaz.net 0 No Rank 2011-12-10 07:00:41
4880172 bradfordpages.ca 0 25435708 2011-12-10 07:00:44
4880173 araf.nl 0 No Rank 2011-12-10 07:00:45
4880174 harrisallen.com 0 No Rank 2011-12-10 07:00:47
4880175 arborheights.org 0 No Rank 2011-12-10 07:00:48
4880176 youresocheap.com 0 No Rank 2011-12-10 07:00:48
4880177 gulfsportfishingcharters.com 0 No Rank 2011-12-10 07:00:51
4880178 cheerbiznews.com 0 4246352 2011-12-10 07:00:56
4880179 heliham.com 0 No Rank 2011-12-10 07:00:56
4880180 visiterungis.com 0 4977245 2011-12-10 07:00:57
4880181 banyandesigns.com 0 No Rank 2011-12-10 07:01:00
4880182 healthystartup.org 0 No Rank 2011-12-10 07:01:01
4880183 lunahomeworks.com 0 No Rank 2011-12-10 07:01:03
4880184 sportsreunion.net 0 No Rank 2011-12-10 07:01:03
4880185 arcaplume.com 0 No Rank 2011-12-10 07:01:05
4880186 jerryravetz.co.uk 0 No Rank 2011-12-10 07:01:07
4880187 sweetissassy.com 0 No Rank 2011-12-10 07:01:08
4880188 archeopolska.com 0 No Rank 2011-12-10 07:01:10
4880189 importsexotica.com 0 No Rank 2011-12-10 07:01:11
4880190 azis.slask.net.pl 0 No Rank 2011-12-10 07:01:13
4880191 tervetuloa.jhl.fi 0 1818214 2011-12-10 07:01:14
4880192 archimetria.pl 0 12302160 2011-12-10 07:01:15
4880193 spelletjesdoen.nl 0 No Rank 2011-12-10 07:01:17
4880194 architecturalprecastconcretepanels.com 0 No Rank 2011-12-10 07:01:17
4880195 india-flower.com 0 21998806 2011-12-10 07:01:18
4880196 architectwimdams.be 0 No Rank 2011-12-10 07:01:23
4880197 icaic.ca 0 No Rank 2011-12-10 07:01:25
4880198 theodorewrj.livejournal.com 0 100 2011-12-10 07:01:26
4880199 korean.szstudy.cn 0 330791 2011-12-10 07:01:27
4880200 e2i-ingenierie.fr 0 No Rank 2011-12-10 07:01:27
4880201 quicktimeplus.com 0 6688357 2011-12-10 07:01:27
4880202 winnica.kraina.pl 0 22000743 2011-12-10 07:01:28
4880203 arcocomputers.com 0 27085892 2011-12-10 07:01:29
4880204 india-flowers.com 0 No Rank 2011-12-10 07:01:29
4880205 rockycreekbmd.com 0 No Rank 2011-12-10 07:01:29
4880206 suzhou.szstudy.cn 0 330791 2011-12-10 07:01:33
4880207 indianvivah.com 0 No Rank 2011-12-10 07:01:37
4880208 arconnet.com 0 No Rank 2011-12-10 07:01:39
4880209 designloftllc.com 0 No Rank 2011-12-10 07:01:40
4880210 indonesiaflowershop.com 0 4728604 2011-12-10 07:01:41
4880211 bullionnation.com 0 No Rank 2011-12-10 07:01:46
4880212 aredi.net 0 No Rank 2011-12-10 07:01:47
4880213 thenaturallook.ca 0 No Rank 2011-12-10 07:01:48
4880214 indonesiaroses.com 0 18380510 2011-12-10 07:01:50
4880215 pureindierock.com 0 22289701 2011-12-10 07:01:51
4880216 arenda-avtovishki.ru 0 6166197 2011-12-10 07:01:51
4880217 rnparvaldnieks.lv 0 10531038 2011-12-10 07:01:51
4880218 jpcministries.com 0 No Rank 2011-12-10 07:01:52
4880219 dwj.dwj-verlag.de 0 No Rank 2011-12-10 07:01:54
4880220 isspe.gob.mx 0 3101024 2011-12-10 07:01:55
4880221 evaluatiegroep.nl 0 No Rank 2011-12-10 07:01:55
4880222 kirti.bunchua.com 0 No Rank 2011-12-10 07:01:55
4880223 gemeinde-grube.de 0 No Rank 2011-12-10 07:01:56
4880224 arenda-sdmo.ru 0 No Rank 2011-12-10 07:01:57
4880225 iswapwithyou.com 0 No Rank 2011-12-10 07:02:00
4880226 electronics.co.at 0 No Rank 2011-12-10 07:02:03
4880227 taroncochrane.com 0 No Rank 2011-12-10 07:02:03
4880228 electricians2.com 0 No Rank 2011-12-10 07:02:03
4880229 audioatlantis.com 0 No Rank 2011-12-10 07:02:04
4880230 aretehealthfit.com 0 19619661 2011-12-10 07:02:05
4880231 jamieconnolly.net 0 5547425 2011-12-10 07:02:06
4880232 argusgroup.eu 0 No Rank 2011-12-10 07:02:10
4880233 vallemenswear.com 0 No Rank 2011-12-10 07:02:13
4880234 japanroses.com 0 7211498 2011-12-10 07:02:14
4880235 aristokratie.org 0 11347094 2011-12-10 07:02:16
4880236 owencounty.in.gov 0 8840 2011-12-10 07:02:18
4880237 arizonacondosunder100k.com 0 No Rank 2011-12-10 07:02:20
4880238 lebanonkyjobs.com 0 22914394 2011-12-10 07:02:22
4880239 arkwindow.com 0 No Rank 2011-12-10 07:02:23
4880240 fenwicksuites.com 0 No Rank 2011-12-10 07:02:24
4880241 joanmaxwell.com 0 17962356 2011-12-10 07:02:25
4880242 arleneandtony.com 0 No Rank 2011-12-10 07:02:27
4880243 ganka-sapporo.biz 0 No Rank 2011-12-10 07:02:27
4880244 jloconsult.com 0 No Rank 2011-12-10 07:02:30
4880245 arlpedcen.org 0 4980124 2011-12-10 07:02:34
4880246 treyrfcole.over-blog.com 0 No Rank 2011-12-10 07:02:39
4880247 armario.pl 0 4950224 2011-12-10 07:02:39
4880248 joguinhosonline.org 0 No Rank 2011-12-10 07:02:43
4880249 armespecialops.com 0 No Rank 2011-12-10 07:02:45
4880250 signsky.in 0 19704538 2011-12-10 07:02:45
4880251 armoursales.com 0 No Rank 2011-12-10 07:02:45
4880252 jubileemarketplace.net 0 8711519 2011-12-10 07:02:46
4880253 konrei-seisho.com 0 No Rank 2011-12-10 07:02:51
4880254 awa-badvoeslau.at 0 20682799 2011-12-10 07:02:53
4880255 plasticsmould.com 0 No Rank 2011-12-10 07:02:54
4880256 keremsaltuk.com 0 No Rank 2011-12-10 07:02:54
4880257 videoweb.ih1.com.ar 0 1676545 2011-12-10 07:02:55
4880258 armyloancompanies.com 0 No Rank 2011-12-10 07:02:55
4880259 arnhemseboys.nl 0 No Rank 2011-12-10 07:02:55
4880260 dresden.art49.com 0 1938705 2011-12-10 07:02:57
4880261 aromaty.pl 0 No Rank 2011-12-10 07:02:58
4880262 arq-ing.com 0 No Rank 2011-12-10 07:03:01
4880263 arrowheadmountainranch.com 0 No Rank 2011-12-10 07:03:05
4880264 arrowheadinsurancevt.com 0 No Rank 2011-12-10 07:03:06
4880265 studionicodemo.it 0 No Rank 2011-12-10 07:03:09
4880266 avonworldwalk.org 0 No Rank 2011-12-10 07:03:10
4880267 arrowtaxserviceplus.com 0 No Rank 2011-12-10 07:03:11
4880268 plastic-brush.com 0 No Rank 2011-12-10 07:03:14
4880269 arshayoga.com 0 4209731 2011-12-10 07:03:14
4880270 0532.fy808.com 0 123316 2011-12-10 07:03:15
4880271 art-work.ch 0 No Rank 2011-12-10 07:03:21
4880272 blog.urbangreencouncil.org 0 1948468 2011-12-10 07:03:22
4880273 viktoriamusic.com 0 No Rank 2011-12-10 07:03:22
4880274 artbarcambridge.com 0 2730199 2011-12-10 07:03:22
4880275 artbyweeze.com 0 No Rank 2011-12-10 07:03:24
4880276 blackbeautyranch.org 0 6028871 2011-12-10 07:03:24
4880277 klimatazdrowie.pl 0 No Rank 2011-12-10 07:03:29
4880278 cancerbill.org 0 No Rank 2011-12-10 07:03:32
4880279 artforkidsschool.com 0 11699247 2011-12-10 07:03:32
4880280 marlisafisher.com 0 No Rank 2011-12-10 07:03:36
4880281 castlehillfunctions.thetrustees.org 0 367557 2011-12-10 07:03:36
4880282 brosontheroad.com 0 No Rank 2011-12-10 07:03:38
4880283 artfromtheyard.com 0 20560459 2011-12-10 07:03:38
4880284 arthur-lambert.com 0 No Rank 2011-12-10 07:03:38
4880285 davenportfarm.com 0 17831916 2011-12-10 07:03:40
4880286 arthursdallas.com 0 3467312 2011-12-10 07:03:41
4880287 cdfactioncouncil.org 0 No Rank 2011-12-10 07:03:42
4880288 voegel-magazin.de 0 14674336 2011-12-10 07:03:43
4880289 technowin.in 0 13314141 2011-12-10 07:03:43
4880290 okularyonline.com 0 No Rank 2011-12-10 07:03:45
4880291 connectioncafe.com 0 697100 2011-12-10 07:03:46
4880292 tableambiance.com 0 23597011 2011-12-10 07:03:47
4880293 community.aabgu.org 0 1883192 2011-12-10 07:03:49
4880294 blueheronserv.com 0 No Rank 2011-12-10 07:03:50
4880295 jimroot.xixel.net 0 No Rank 2011-12-10 07:03:52
4880296 mairiedemaysel.fr 0 No Rank 2011-12-10 07:03:52
4880297 intranet.voeig.at 0 No Rank 2011-12-10 07:03:54
4880298 dewaynedavis.com 0 No Rank 2011-12-10 07:03:54
4880299 artingames.com 0 2951553 2011-12-10 07:04:04
4880300 gardeninginottawa.com 0 No Rank 2011-12-10 07:04:04
4880301 lz.suiyifa.com 0 271062 2011-12-10 07:04:06
4880302 iucogsci.blogspot.com 0 No Rank 2011-12-10 07:04:08
4880303 artisticinsights.com 0 No Rank 2011-12-10 07:04:10
4880304 johnsonguideservice.com 0 No Rank 2011-12-10 07:04:14
4880305 artline-jet.ru 0 No Rank 2011-12-10 07:04:14
4880306 ersinboya.com.tr 0 27905602 2011-12-10 07:04:17
4880307 artmorganlaw.com 0 13732159 2011-12-10 07:04:20
4880308 greenyline.com 0 4947020 2011-12-10 07:04:24
4880309 artofteachingsd.com 0 17885354 2011-12-10 07:04:26
4880310 informsalemtaxpayers.info 0 No Rank 2011-12-10 07:04:29
4880311 artrages.org 0 No Rank 2011-12-10 07:04:29
4880312 oldpocketwatches.org 0 12334409 2011-12-10 07:04:30
4880313 artikular.com 0 No Rank 2011-12-10 07:04:31
4880314 inter-lines.net 0 6538660 2011-12-10 07:04:32
4880315 artsandflowers.com 0 No Rank 2011-12-10 07:04:32
4880316 artvoxlive.com 0 No Rank 2011-12-10 07:04:35
4880317 eyepluslens.com 0 23995832 2011-12-10 07:04:38
4880318 ascotparkmx.com 0 13340975 2011-12-10 07:04:41
4880319 hkcakes.com 0 No Rank 2011-12-10 07:04:42
4880320 aseb.ro 0 8515191 2011-12-10 07:04:46
4880321 danquinn.net 0 19442197 2011-12-10 07:04:46
4880322 chelseafrazer.com 0 No Rank 2011-12-10 07:04:52
4880323 design.erikhartley.com 0 No Rank 2011-12-10 07:04:55
4880324 blueridgetrac.com 0 No Rank 2011-12-10 07:04:56
4880325 aquaapartners.com 0 22432832 2011-12-10 07:04:59
4880326 bitangtibi.ofi.hu 0 611140 2011-12-10 07:04:59
4880327 ashburnpediatrics.com 0 7828294 2011-12-10 07:05:01
4880328 ashikitanoaji.com 0 No Rank 2011-12-10 07:05:03
4880329 apostilaconcursospublicos.com.br 0 13509716 2011-12-10 07:05:04
4880330 work-life-success.info 0 No Rank 2011-12-10 07:05:12
4880331 ashlandsmiles.com 0 11803961 2011-12-10 07:05:12
4880332 drevoobrabotka.ru 0 No Rank 2011-12-10 07:05:13
4880333 thetinkersson.com 0 17148246 2011-12-10 07:05:15
4880334 indonesianflorist.com 0 10415131 2011-12-10 07:05:15
4880335 ashlandholistichealth.com 0 No Rank 2011-12-10 07:05:15
4880336 ashtead.tel 0 13692365 2011-12-10 07:05:16
4880337 thietbibepxinh.vn 0 7514197 2011-12-10 07:05:16
4880338 asianartsinitiative.org 0 20712348 2011-12-10 07:05:19
4880339 asianstoriesmovie.com 0 No Rank 2011-12-10 07:05:23
4880340 cdf.childrensdefense.org 0 647400 2011-12-10 07:05:23
4880341 asiantouch-orientalmassage-london.com 0 5009093 2011-12-10 07:05:25
4880342 productbonuses.com 0 No Rank 2011-12-10 07:05:28
4880343 asistamedia.com 0 No Rank 2011-12-10 07:05:30
4880344 default.pub30.convio.net 0 5249 2011-12-10 07:05:30
4880345 asktomato.com 0 No Rank 2011-12-10 07:05:32
4880346 economicscbc.fullblog.com.ar 0 32189 2011-12-10 07:05:33
4880347 asoq.com 0 No Rank 2011-12-10 07:05:37
4880348 curecaninecancer.org 0 12326811 2011-12-10 07:05:37
4880349 peter-zoellner.de 0 18269032 2011-12-10 07:05:37
4880350 asociatia-profesorilor.ro 0 2407780 2011-12-10 07:05:38
4880351 palinaklimava.com 0 No Rank 2011-12-10 07:05:39
4880352 rg-consultants.fr 0 27519755 2011-12-10 07:05:41
4880353 asotincountyregionallandfill.com 0 No Rank 2011-12-10 07:05:41
4880354 customer.convio.com 0 5249 2011-12-10 07:05:43
4880355 aspoolservice.com 0 13036851 2011-12-10 07:05:44
4880356 zf.ksaphone.biz 0 26691517 2011-12-10 07:05:46
4880357 greenwoodabcs.org 0 23541062 2011-12-10 07:05:47
4880358 democracyday.com 0 No Rank 2011-12-10 07:05:49
4880359 associatedscienceexperts.com 0 No Rank 2011-12-10 07:05:49
4880360 democracyclass.com 0 15884193 2011-12-10 07:05:50
4880361 qteksolutions.com 0 No Rank 2011-12-10 07:05:51
4880362 world-ofbusiness.info 0 No Rank 2011-12-10 07:05:51
4880363 assurancecc.com 0 No Rank 2011-12-10 07:05:53
4880364 differentialresponseqic.org 0 No Rank 2011-12-10 07:05:56
4880365 musiccitynews.com 0 6549166 2011-12-10 07:05:56
4880366 astro12hoek.be 0 16444163 2011-12-10 07:05:57
4880367 isoburnerfree.com 0 5017368 2011-12-10 07:05:59
4880368 edesszenvedely.hu 0 No Rank 2011-12-10 07:05:59
4880369 worldtravelnow.info 0 No Rank 2011-12-10 07:06:00
4880370 worldnewspaper.info 0 No Rank 2011-12-10 07:06:00
4880371 astroseal.com 0 No Rank 2011-12-10 07:06:01
4880372 astron.by 0 5943999 2011-12-10 07:06:01
4880373 eleco-software.de 0 25677365 2011-12-10 07:06:02
4880374 ebmny.org 0 No Rank 2011-12-10 07:06:02
4880375 atateknoloji.com 0 9841369 2011-12-10 07:06:05
4880376 sacredheartnj.com 0 22927972 2011-12-10 07:06:07
4880377 wowgoldpower.info 0 No Rank 2011-12-10 07:06:08
4880378 earthday.nature.org 0 50887 2011-12-10 07:06:11
4880379 cityofnewbern.com 0 No Rank 2011-12-10 07:06:12
4880380 athousandgrams.com 0 18173401 2011-12-10 07:06:12
4880381 atjonesministries.org 0 No Rank 2011-12-10 07:06:16
4880382 nonnascooking.net 0 No Rank 2011-12-10 07:06:16
4880383 experience.aidslifecycle.org 0 No Rank 2011-12-10 07:06:17
4880384 atlantaforeclosureonline.com 0 No Rank 2011-12-10 07:06:17
4880385 atlantalhr.com 0 No Rank 2011-12-10 07:06:20
4880386 events.komenaspen.org 0 No Rank 2011-12-10 07:06:22
4880387 atlantawoodcarvers.com 0 No Rank 2011-12-10 07:06:23
4880388 atlanticbooks.com 0 2171422 2011-12-10 07:06:24
4880389 30helensagree.com 0 No Rank 2011-12-10 07:06:24
4880390 familybuilding.resolve.org 0 478475 2011-12-10 07:06:26
4880391 atlanticrdc.com 0 No Rank 2011-12-10 07:06:28
4880392 atlaspumpingservice.com 0 18760342 2011-12-10 07:06:29
4880393 mon-guide-web.com 0 8859561 2011-12-10 07:06:30
4880394 atlidc.com 0 No Rank 2011-12-10 07:06:32
4880395 fondouk.org 0 No Rank 2011-12-10 07:06:32
4880396 attorneysinaustin.com 0 No Rank 2011-12-10 07:06:35
4880397 china-jinchao.com 0 No Rank 2011-12-10 07:06:35
4880398 dubrovnikinfo.org 0 15541872 2011-12-10 07:06:35
4880399 au-oy.ru 0 26119586 2011-12-10 07:06:39
4880400 wenfordbridge.com 0 18994168 2011-12-10 07:06:40
4880401 aiclawyers.com.vn 0 No Rank 2011-12-10 07:06:40
4880402 handa-links.co.jp 0 No Rank 2011-12-10 07:06:41
4880403 houndsofamali.com 0 No Rank 2011-12-10 07:06:42
4880404 aucard.org 0 13374365 2011-12-10 07:06:43
4880405 getinvolved.pogo.org 0 727222 2011-12-10 07:06:45
4880406 aucentreressources.free.fr 0 No Rank 2011-12-10 07:06:46
4880407 tampaboatshow.com 0 2204063 2011-12-10 07:06:48
4880408 atwa.enniodri.com 0 No Rank 2011-12-10 07:06:48
4880409 audi.ee 0 1508324 2011-12-10 07:06:49
4880410 firenze.art49.com 0 1938705 2011-12-10 07:06:50
4880411 audiolinks.org 0 5068895 2011-12-10 07:06:51
4880412 thoitrangsexy.com 0 12419519 2011-12-10 07:06:51
4880413 girlup.org 0 929841 2011-12-10 07:06:52
4880414 audiowebman.org 0 6471841 2011-12-10 07:06:52
4880415 worldwide-marketing-inc.info 0 17972416 2011-12-10 07:06:53
4880416 aufgeschoben.de 0 No Rank 2011-12-10 07:06:54
4880417 auraphoto.com 0 962158 2011-12-10 07:06:56
4880418 sabine-wiegand.de 0 12161372 2011-12-10 07:06:56
4880419 aussieebookdirectory.com 0 No Rank 2011-12-10 07:06:57
4880420 dngvaluations.com 0 No Rank 2011-12-10 07:06:58
4880421 theessaycoach.com 0 25574396 2011-12-10 07:06:58
4880422 go.convio.com 0 5249 2011-12-10 07:06:58
4880423 austinhills.com 0 No Rank 2011-12-10 07:07:01
4880424 austinfinancialgroup.net 0 No Rank 2011-12-10 07:07:01
4880425 go.nbm.org 0 No Rank 2011-12-10 07:07:03
4880426 sandisdesigns.com 0 No Rank 2011-12-10 07:07:03
4880427 hollydoucette.com 0 No Rank 2011-12-10 07:07:07
4880428 greaterthanone.org 0 6033783 2011-12-10 07:07:08
4880429 makaan2dukaan.com 0 3871492 2011-12-10 07:07:08
4880430 k-orthophonie.com 0 No Rank 2011-12-10 07:07:10
4880431 austinspringsspa.com 0 9569695 2011-12-10 07:07:11
4880432 ruichiweitong.com 0 No Rank 2011-12-10 07:07:13
4880433 authentictranslations.com 0 No Rank 2011-12-10 07:07:14
4880434 australisintelligence.com 0 2186937 2011-12-10 07:07:16
4880435 hertel.us 0 15447985 2011-12-10 07:07:16
4880436 emmertwelding.com 0 No Rank 2011-12-10 07:07:19
4880437 authentictravel-maroc.com 0 No Rank 2011-12-10 07:07:20
4880438 historicrealestate.preservationnation.org 0 No Rank 2011-12-10 07:07:20
4880439 carlyhughes.co.uk 0 No Rank 2011-12-10 07:07:21
4880440 auto-komis.com.pl 0 6639258 2011-12-10 07:07:28
4880441 auto-comfort.su 0 No Rank 2011-12-10 07:07:29
4880442 highschoolsportstats.com 0 No Rank 2011-12-10 07:07:30
4880443 thehackerboys.com 0 No Rank 2011-12-10 07:07:30
4880444 megaproupload.com 0 3478171 2011-12-10 07:07:32
4880445 auto-rady.cz 0 No Rank 2011-12-10 07:07:32
4880446 doctorgraphic.com 0 3738885 2011-12-10 07:07:33
4880447 auto7979.com 0 No Rank 2011-12-10 07:07:36
4880448 auto88apps.com 0 No Rank 2011-12-10 07:07:36
4880449 boards.mmorgy.com 0 7283357 2011-12-10 07:07:36
4880450 hsvma.org 0 4350423 2011-12-10 07:07:37
4880451 landschapslied.nl 0 No Rank 2011-12-10 07:07:38
4880452 mucintranphat.com 0 No Rank 2011-12-10 07:07:39
4880453 mcard.metroer.com 0 32646 2011-12-10 07:07:41
4880454 autoam.ru 0 No Rank 2011-12-10 07:07:41
4880455 humaneeating.org 0 No Rank 2011-12-10 07:07:42
4880456 autoconnectionhawaii.com 0 6088788 2011-12-10 07:07:45
4880457 hurricanes.xyankeeworkshop.com 0 No Rank 2011-12-10 07:07:45
4880458 grierbuilding.com 0 No Rank 2011-12-10 07:07:47
4880459 hausbuntspecht.de 0 24271909 2011-12-10 07:07:47
4880460 autodealer.ru 0 249274 2011-12-10 07:07:49
4880461 katkornblum.co.uk 0 No Rank 2011-12-10 07:07:50
4880462 idanews.org 0 10076793 2011-12-10 07:07:52
4880463 i95kickoffclassic.com 0 No Rank 2011-12-10 07:07:54
4880464 sqlmanager.com.br 0 4424442 2011-12-10 07:07:56
4880465 autoreconditioner.com 0 No Rank 2011-12-10 07:07:58
4880466 im.seventh8th.net 0 18451349 2011-12-10 07:07:58
4880467 lestroismages.com 0 9110369 2011-12-10 07:07:59
4880468 marchmenthill.com 0 No Rank 2011-12-10 07:08:00
4880469 chisinau-hotel.md 0 12976698 2011-12-10 07:08:01
4880470 skolajachtingu.cz 0 7611067 2011-12-10 07:08:03
4880471 autoshowsonline.com 0 4443900 2011-12-10 07:08:04
4880472 autotreid.cz 0 8355206 2011-12-10 07:08:06
4880473 faulknerchiro.com 0 No Rank 2011-12-10 07:08:09
4880474 autozentrum-laube.de 0 No Rank 2011-12-10 07:08:10
4880475 indousresearch.com 0 No Rank 2011-12-10 07:08:11
4880476 autozonereunion.com 0 13603720 2011-12-10 07:08:11
4880477 rinutonedistr.com 0 No Rank 2011-12-10 07:08:12
4880478 ville-seyssins.fr 0 4377639 2011-12-10 07:08:13
4880479 vbicablegland.com 0 No Rank 2011-12-10 07:08:13
4880480 dottorpianesi.com 0 No Rank 2011-12-10 07:08:14
4880481 infologiq.com 0 No Rank 2011-12-10 07:08:16
4880482 avatarstyle.net 0 8869366 2011-12-10 07:08:16
4880483 dooutsourcing.com 0 No Rank 2011-12-10 07:08:17
4880484 avangard.com.hr 0 No Rank 2011-12-10 07:08:17
4880485 avcodental.com 0 15234549 2011-12-10 07:08:19
4880486 humbeebaafarm.com 0 No Rank 2011-12-10 07:08:19
4880487 averygoodhairday.com 0 No Rank 2011-12-10 07:08:20
4880488 kinderparade.info 0 No Rank 2011-12-10 07:08:21
4880489 blog.ant-hill.org 0 23924773 2011-12-10 07:08:22
4880490 avonnurseryschool.org 0 No Rank 2011-12-10 07:08:24
4880491 inspiredgoods.net 0 No Rank 2011-12-10 07:08:24
4880492 selffoundation.org 0 13537836 2011-12-10 07:08:25
4880493 avinhouse.com 0 No Rank 2011-12-10 07:08:26
4880494 blackbluebrown.com 0 8793824 2011-12-10 07:08:28
4880495 investor.verizon.com 0 632 2011-12-10 07:08:28
4880496 awardking.com 0 10964580 2011-12-10 07:08:31
4880497 betterblooduse.com 0 No Rank 2011-12-10 07:08:34
4880498 ville-latronche.fr 0 4377639 2011-12-10 07:08:35
4880499 david.rochberg.com 0 No Rank 2011-12-10 07:08:36
4880500 awmobileusa.com 0 13741079 2011-12-10 07:08:36
4880501 awris.com 0 No Rank 2011-12-10 07:08:39
4880502 iwa-llc.com 0 No Rank 2011-12-10 07:08:39
4880503 point.sexcams.sexdating-247.nl 0 No Rank 2011-12-10 07:08:42
4880504 giaodichdiaoc.info 0 No Rank 2011-12-10 07:08:42
4880505 axiosconstructionllc.com 0 No Rank 2011-12-10 07:08:44
4880506 debbiejackson.org 0 No Rank 2011-12-10 07:08:44
4880507 chungtaychongh.com 0 9750897 2011-12-10 07:08:45
4880508 axlewhitehead.com 0 No Rank 2011-12-10 07:08:47
4880509 bbs.powerapple.com 0 14630 2011-12-10 07:08:48
4880510 jackgranath.com 0 No Rank 2011-12-10 07:08:50
4880511 az-sta.com 0 5367837 2011-12-10 07:08:52
4880512 matsuokatakken.com 0 3919767 2011-12-10 07:08:54
4880513 jackpaulus.com 0 No Rank 2011-12-10 07:08:56
4880514 luyenchu10buoi.com 0 No Rank 2011-12-10 07:08:58
4880515 azallamerican.com 0 No Rank 2011-12-10 07:08:58
4880516 detox.czynowski.pl 0 6954227 2011-12-10 07:09:00
4880517 jacobscleaningvillage.com 0 No Rank 2011-12-10 07:09:01
4880518 0452.fy808.com 0 123316 2011-12-10 07:09:02
4880519 azpaintreatment.com 0 16738925 2011-12-10 07:09:02
4880520 azrdc.org 0 No Rank 2011-12-10 07:09:03
4880521 mairie-seyssins.fr 0 12171904 2011-12-10 07:09:03
4880522 thepupuplatter.com 0 No Rank 2011-12-10 07:09:05
4880523 aztecaoutdoor.org 0 18646816 2011-12-10 07:09:10
4880524 greatgiftideas.com 0 3317497 2011-12-10 07:09:15
4880525 jassb.org 0 No Rank 2011-12-10 07:09:17
4880526 floydcreations.com 0 15332069 2011-12-10 07:09:18
4880527 aztechcenter.com 0 No Rank 2011-12-10 07:09:21
4880528 passport.peiyt.com 0 12247410 2011-12-10 07:09:24
4880529 jeffersonfarfan.com 0 No Rank 2011-12-10 07:09:24
4880530 b2b-tube.com 0 No Rank 2011-12-10 07:09:25
4880531 discoverboating.ca 0 1679846 2011-12-10 07:09:25
4880532 hautarzt-wangen.de 0 16422770 2011-12-10 07:09:27
4880533 jeannedavis.com 0 No Rank 2011-12-10 07:09:28
4880534 b-unicque.com 0 4567650 2011-12-10 07:09:29
4880535 baanboaresort.com 0 6500310 2011-12-10 07:09:29
4880536 bettingmonthly.com 0 25333707 2011-12-10 07:09:30
4880537 baasesores.com 0 No Rank 2011-12-10 07:09:31
4880538 zurawie-serafin.pl 0 No Rank 2011-12-10 07:09:32
4880539 jerkyreviews.com 0 No Rank 2011-12-10 07:09:34
4880540 ru.winstrolmed.com 0 No Rank 2011-12-10 07:09:35
4880541 alustadhcenter.org 0 28087168 2011-12-10 07:09:36
4880542 babajiforall.com 0 No Rank 2011-12-10 07:09:37
4880543 volby.osobnosti.sk 0 520212 2011-12-10 07:09:40
4880544 meiwastrapping.com 0 No Rank 2011-12-10 07:09:46
4880545 joinus.urbangreencouncil.org 0 1948468 2011-12-10 07:09:46
4880546 jojiphoto.com 0 No Rank 2011-12-10 07:09:50
4880547 babyproductsnewzealand.com 0 22314634 2011-12-10 07:09:51
4880548 russian.szstudy.cn 0 330791 2011-12-10 07:09:52
4880549 baby-rucksack.de 0 No Rank 2011-12-10 07:09:53
4880550 dealershouston.com 0 No Rank 2011-12-10 07:09:53
4880551 home.lake-side.com 0 9106290 2011-12-10 07:09:54
4880552 johngerighty.co.uk 0 No Rank 2011-12-10 07:09:54
4880553 babytaylorguitar.com 0 No Rank 2011-12-10 07:09:56
4880554 jonathancutrell.com 0 No Rank 2011-12-10 07:09:56
4880555 bachstowing.com 0 No Rank 2011-12-10 07:09:58
4880556 english.gbpack.com 0 924926 2011-12-10 07:09:58
4880557 tubepphuongtam.com 0 7136297 2011-12-10 07:10:02
4880558 12-free.org 0 No Rank 2011-12-10 07:10:02
4880559 backstreethomedecor.com 0 No Rank 2011-12-10 07:10:03
4880560 backsplashandfloors.com 0 No Rank 2011-12-10 07:10:04
4880561 muenchen.art49.com 0 1938705 2011-12-10 07:10:04
4880562 joshbuckner.com 0 No Rank 2011-12-10 07:10:07
4880563 retired-restless.com 0 21545020 2011-12-10 07:10:09
4880564 spl-powerlines.com 0 No Rank 2011-12-10 07:10:09
4880565 zeroincondotta.net 0 20651751 2011-12-10 07:10:10
4880566 nameintheframe.com 0 1443419 2011-12-10 07:10:11
4880567 backyardbassbaits.com 0 No Rank 2011-12-10 07:10:11
4880568 kvartiry-minsk.com 0 5881397 2011-12-10 07:10:14
4880569 badger-trail.com 0 19160801 2011-12-10 07:10:14
4880570 yourbeautyguide.info 0 No Rank 2011-12-10 07:10:15
4880571 jskabylie.net 0 No Rank 2011-12-10 07:10:15
4880572 ndf.natlib.govt.nz 0 114753 2011-12-10 07:10:15
4880573 best4less4salemarto.de.ki 0 No Rank 2011-12-10 07:10:16
4880574 badbreeders.net 0 502242 2011-12-10 07:10:17
4880575 jucamisac.com 0 No Rank 2011-12-10 07:10:18
4880576 plsqldeveloper.net 0 No Rank 2011-12-10 07:10:19
4880577 badugipokerrules.com 0 5766149 2011-12-10 07:10:19
4880578 djvirtualtrial.com 0 No Rank 2011-12-10 07:10:20
4880579 paloaltosevens.com 0 No Rank 2011-12-10 07:10:21
4880580 bafn.ca 0 23061103 2011-12-10 07:10:22
4880581 bestdealprice4salestorea.24.je 0 936828 2011-12-10 07:10:23
4880582 marcelosantino.com 0 No Rank 2011-12-10 07:10:24
4880583 gelistiriciyiz.com 0 No Rank 2011-12-10 07:10:25
4880584 bagitmovie.com 0 1820383 2011-12-10 07:10:25
4880585 bahraindesires.com 0 21085270 2011-12-10 07:10:28
4880586 best4less4salestored.shopping2000.com 0 1337148 2011-12-10 07:10:31
4880587 buypriceloweststorew.seite77.de 0 1325610 2011-12-10 07:10:33
4880588 baileygarcia.com 0 No Rank 2011-12-10 07:10:33
4880589 wardensecurity.com 0 No Rank 2011-12-10 07:10:34
4880590 freezonline-tv.com 0 20036541 2011-12-10 07:10:34
4880591 justicefirst.org 0 21854629 2011-12-10 07:10:36
4880592 joeythemidwife.com 0 No Rank 2011-12-10 07:10:36
4880593 allintheinvite.com 0 No Rank 2011-12-10 07:10:38
4880594 bajkowydomek.com.pl 0 No Rank 2011-12-10 07:10:38
4880595 bajoulan.com 0 No Rank 2011-12-10 07:10:40
4880596 bakalar.com 0 No Rank 2011-12-10 07:10:40
4880597 karate2011.x-kombat.com 0 7623469 2011-12-10 07:10:40
4880598 brookstownship.org 0 21990122 2011-12-10 07:10:42
4880599 apartmentsminsk.by 0 21298676 2011-12-10 07:10:42
4880600 bestdealdiscountlowestmartw.seite77.de 0 1325610 2011-12-10 07:10:43
4880601 buy4less4salemarte.co.gp 0 153633 2011-12-10 07:10:43
4880602 bakerheightsbaptistchurch.com 0 No Rank 2011-12-10 07:10:43
4880603 jyg.suiyifa.com 0 No Rank 2011-12-10 07:10:45
4880604 bakventa.com 0 No Rank 2011-12-10 07:10:45
4880605 streetsoulbook.com 0 No Rank 2011-12-10 07:10:48
4880606 balladyre.com 0 No Rank 2011-12-10 07:10:49
4880607 maixiangmengxi.com 0 No Rank 2011-12-10 07:10:49
4880608 rapidplusshare.com 0 3497818 2011-12-10 07:10:49
4880609 ceramichearlia.com 0 No Rank 2011-12-10 07:10:50
4880610 ballaja.com 0 No Rank 2011-12-10 07:10:51
4880611 balloonsonbroadway.com 0 17477459 2011-12-10 07:10:53
4880612 ballverliebt.de 0 No Rank 2011-12-10 07:10:55
4880613 balticgate.eu 0 No Rank 2011-12-10 07:10:57
4880614 baltravelhouse.com 0 17384697 2011-12-10 07:10:59
4880615 westernshoreoa.org 0 No Rank 2011-12-10 07:10:59
4880616 store.norcalna.org 0 7731073 2011-12-10 07:11:02
4880617 bamboo-project.net 0 16089135 2011-12-10 07:11:03
4880618 telefoonarchief.nl 0 No Rank 2011-12-10 07:11:04
4880619 bancontactgokken.net 0 No Rank 2011-12-10 07:11:11
4880620 tonbandmuseum.info 0 5260379 2011-12-10 07:11:11
4880621 cellphonepartszone.com 0 No Rank 2011-12-10 07:11:12
4880622 bandgmaintenance.com 0 9460381 2011-12-10 07:11:14
4880623 dealdiscountsalemarth.search.gp 0 5830743 2011-12-10 07:11:14
4880624 bikefortcuster.com 0 No Rank 2011-12-10 07:11:15
4880625 matthewbarbato.com 0 No Rank 2011-12-10 07:11:15
4880626 donrogersmagic.com 0 No Rank 2011-12-10 07:11:16
4880627 bande-annonces.com 0 7980276 2011-12-10 07:11:16
4880628 bandrtoolsinc.com 0 No Rank 2011-12-10 07:11:17
4880629 toyotacover.carcoverspal.com 0 2262122 2011-12-10 07:11:19
4880630 bandungclothing.com 0 No Rank 2011-12-10 07:11:19
4880631 banglahoo.com 0 No Rank 2011-12-10 07:11:21
4880632 ghqconnections.com 0 No Rank 2011-12-10 07:11:21
4880633 bankruptcy-facts.net 0 No Rank 2011-12-10 07:11:25
4880634 fernsehmuseum.info 0 3665479 2011-12-10 07:11:25
4880635 bannersbymontanos.com 0 No Rank 2011-12-10 07:11:32
4880636 oita-oosukouen.com 0 6427442 2011-12-10 07:11:33
4880637 rsaengineering.com 0 No Rank 2011-12-10 07:11:33
4880638 clintontractor.com 0 No Rank 2011-12-10 07:11:35
4880639 bap-law.com 0 No Rank 2011-12-10 07:11:35
4880640 clickandsavegolf.stores.yahoo.net 0 4 2011-12-10 07:11:36
4880641 supersupergood.com 0 No Rank 2011-12-10 07:11:39
4880642 barbarabieraugeldesigns.com 0 No Rank 2011-12-10 07:11:39
4880643 gelesirpuokstes.lt 0 8027884 2011-12-10 07:11:40
4880644 wangener-welten.de 0 No Rank 2011-12-10 07:11:40
4880645 barbaralambmft.com 0 No Rank 2011-12-10 07:11:42
4880646 barbaramoscatobrownlibrary.org 0 No Rank 2011-12-10 07:11:44
4880647 juegosretro.p4p.es 0 24676307 2011-12-10 07:11:45
4880648 stylista-fryzur.pl 0 No Rank 2011-12-10 07:11:45
4880649 johnpaulsavory.com 0 No Rank 2011-12-10 07:11:48
4880650 bardeco.net 0 No Rank 2011-12-10 07:11:48
4880651 whatisanumbilicalcord.com 0 25928475 2011-12-10 07:11:48
4880652 barefootonthegulf.com 0 No Rank 2011-12-10 07:11:53
4880653 barefootservants.net 0 19745897 2011-12-10 07:11:57
4880654 sorsogoncitywd.com 0 No Rank 2011-12-10 07:11:58
4880655 bankruptcy-r-us.com 0 No Rank 2011-12-10 07:11:58
4880656 zieretrainingen.nl 0 No Rank 2011-12-10 07:12:00
4880657 barfranchinc.com 0 No Rank 2011-12-10 07:12:00
4880658 renegadebritts.com 0 12315253 2011-12-10 07:12:02
4880659 barkingspiderproductionsvt.org 0 5593747 2011-12-10 07:12:04
4880660 canmedmaritime.com 0 No Rank 2011-12-10 07:12:04
4880661 barneythebeaver.com 0 No Rank 2011-12-10 07:12:05
4880662 noithatmyha.com.vn 0 27704107 2011-12-10 07:12:09
4880663 barrettcooling.com 0 18889154 2011-12-10 07:12:10
4880664 agenerousheart.com 0 No Rank 2011-12-10 07:12:16
4880665 bartos.de 0 1957470 2011-12-10 07:12:23
4880666 bashfulbirdie.com 0 No Rank 2011-12-10 07:12:23
4880667 heatherkennedy.org 0 No Rank 2011-12-10 07:12:26
4880668 basildontimber.com 0 9593501 2011-12-10 07:12:26
4880669 basingerpropane.com 0 No Rank 2011-12-10 07:12:29
4880670 basketspecialties.com 0 No Rank 2011-12-10 07:12:31
4880671 jmarshamichler.com 0 20836629 2011-12-10 07:12:35
4880672 kopfkissen-test.de 0 16610625 2011-12-10 07:12:36
4880673 nationalplaque.com 0 No Rank 2011-12-10 07:12:38
4880674 basyuk.com 0 5951523 2011-12-10 07:12:39
4880675 bastianwehler.de 0 8413407 2011-12-10 07:12:40
4880676 research.51job.com 0 408 2011-12-10 07:12:41
4880677 masstechnology.com 0 3225791 2011-12-10 07:12:41
4880678 bathtubjunkies.com 0 27550153 2011-12-10 07:12:41
4880679 hannover.art49.com 0 1938705 2011-12-10 07:12:42
4880680 darkwear.com 0 No Rank 2011-12-10 07:12:42
4880681 battleofwestport.org 0 No Rank 2011-12-10 07:12:43
4880682 alpinegroupinc.net 0 No Rank 2011-12-10 07:12:46
4880683 treatment.acas.org 0 6428977 2011-12-10 07:12:47
4880684 editorixragazzi.it 0 26452476 2011-12-10 07:12:48
4880685 bayanconsult.com 0 No Rank 2011-12-10 07:12:48
4880686 tianhaobearing.com 0 No Rank 2011-12-10 07:12:50
4880687 bayarearealestatemarketupdate.com 0 15996309 2011-12-10 07:12:51
4880688 baysidekey.com 0 No Rank 2011-12-10 07:12:54
4880689 bayarearealestatephotos.com 0 No Rank 2011-12-10 07:12:56
4880690 shuixian-brush.com 0 24463775 2011-12-10 07:12:56
4880691 rainbow-studio.net 0 1701490 2011-12-10 07:12:58
4880692 myfluelessfire.com 0 No Rank 2011-12-10 07:12:58
4880693 bayviewhistory.ca 0 No Rank 2011-12-10 07:12:58
4880694 ironingservice.biz 0 No Rank 2011-12-10 07:12:58
4880695 amorlingerie.co.uk 0 10234509 2011-12-10 07:13:00
4880696 bb-stil.ch 0 20737625 2011-12-10 07:13:00
4880697 baywa-standorte.de 0 No Rank 2011-12-10 07:13:00
4880698 bbatalent.com 0 4752446 2011-12-10 07:13:01
4880699 bbc.belveder.sk 0 18092240 2011-12-10 07:13:03
4880700 talenttrackers.net 0 No Rank 2011-12-10 07:13:05
4880701 qsystemsglobal.com 0 26083151 2011-12-10 07:13:05
4880702 bvinfo.newmagic.at 0 10552890 2011-12-10 07:13:12
4880703 realdealrajkot.com 0 13114705 2011-12-10 07:13:13
4880704 letsplaymakeup.com 0 No Rank 2011-12-10 07:13:14
4880705 bbphotographie.free.fr 0 14139716 2011-12-10 07:13:14
4880706 pontileignazio.org 0 No Rank 2011-12-10 07:13:20
4880707 bccareheating.com 0 No Rank 2011-12-10 07:13:22
4880708 bcdi-catalog.com 0 No Rank 2011-12-10 07:13:22
4880709 parkrandenbroek.nl 0 13094466 2011-12-10 07:13:27
4880710 editorialderecho.fullblog.com.ar 0 32189 2011-12-10 07:13:28
4880711 rotarymandrels.com 0 17553655 2011-12-10 07:13:28
4880712 shop.dwj-verlag.de 0 No Rank 2011-12-10 07:13:34
4880713 bdsensors.com 0 5154250 2011-12-10 07:13:35
4880714 osmondmemorial.com 0 19947070 2011-12-10 07:13:37
4880715 beachair.com 0 No Rank 2011-12-10 07:13:37
4880716 jameskennemore.com 0 No Rank 2011-12-10 07:13:39
4880717 beachbumsami.com 0 8518811 2011-12-10 07:13:39
4880718 shiatsu-shintai.it 0 12557094 2011-12-10 07:13:39
4880719 beachhousecairns.com 0 11828299 2011-12-10 07:13:42
4880720 beachcruiserbikes.net 0 20800662 2011-12-10 07:13:43
4880721 beachmeals.com 0 No Rank 2011-12-10 07:13:45
4880722 aera-geschichte.de 0 No Rank 2011-12-10 07:13:46
4880723 culinar.starlog.ro 0 No Rank 2011-12-10 07:13:46
4880724 beachside-barcafe.com 0 No Rank 2011-12-10 07:13:47
4880725 beachwooddental.com 0 No Rank 2011-12-10 07:13:49
4880726 bhatiahospital.org 0 6074570 2011-12-10 07:13:50
4880727 beaconent.com 0 No Rank 2011-12-10 07:13:52
4880728 beaconwiper.com 0 22330444 2011-12-10 07:13:53
4880729 beano.theclown.free.fr 0 No Rank 2011-12-10 07:13:55
4880730 nevadabuilding.net 0 No Rank 2011-12-10 07:13:55
4880731 progress-resurs.ru 0 No Rank 2011-12-10 07:14:00
4880732 beatcancer4ever.com 0 No Rank 2011-12-10 07:14:01
4880733 commercesdemouy.com 0 No Rank 2011-12-10 07:14:04
4880734 beatfactorymusic.com 0 11649371 2011-12-10 07:14:05
4880735 beatsclassics.com 0 21040094 2011-12-10 07:14:12
4880736 beaumaster.com 0 No Rank 2011-12-10 07:14:15
4880737 becamex.com 0 No Rank 2011-12-10 07:14:18
4880738 metex.malopolska.pl 0 No Rank 2011-12-10 07:14:18
4880739 stevejobsbookreview.com 0 No Rank 2011-12-10 07:14:19
4880740 beauvilla.com 0 10079589 2011-12-10 07:14:19
4880741 go-greencompany.com 0 No Rank 2011-12-10 07:14:22
4880742 beckyandersonphotography.com 0 No Rank 2011-12-10 07:14:24
4880743 becomeasocialmediamanager.com 0 No Rank 2011-12-10 07:14:25
4880744 bedandbreakfastsimpatia.com 0 25011880 2011-12-10 07:14:27
4880745 hrkalkulator.ofi.hu 0 611140 2011-12-10 07:14:27
4880746 darougostarrazi.com 0 1574349 2011-12-10 07:14:28
4880747 0874.fy808.com 0 123316 2011-12-10 07:14:28
4880748 bayswitches.rde.net 0 6548650 2011-12-10 07:14:30
4880749 bedandbreakfasttexel.com 0 No Rank 2011-12-10 07:14:30
4880750 hoteldubrovnik.info 0 6517936 2011-12-10 07:14:31
4880751 cms.dancespirit.com 0 1620792 2011-12-10 07:14:33
4880752 mpam.dancemedia.com 0 518765 2011-12-10 07:14:35
4880753 emrgent.endores.com 0 10598731 2011-12-10 07:14:37
4880754 punkstarstudios.com 0 22233376 2011-12-10 07:14:37
4880755 split-apartment.net 0 17483860 2011-12-10 07:14:38
4880756 fishingresource.net 0 1658030 2011-12-10 07:14:39
4880757 beerplaza.com.vn 0 27779756 2011-12-10 07:14:39
4880758 endores.com 0 10598731 2011-12-10 07:14:42
4880759 beetle-rsi.com 0 No Rank 2011-12-10 07:14:43
4880760 support.ezaurus.com 0 1298733 2011-12-10 07:14:47
4880761 sarteanovacanze.com 0 No Rank 2011-12-10 07:14:49
4880762 beginningschildbirth.com 0 No Rank 2011-12-10 07:14:49
4880763 allstonegranite.com 0 23532603 2011-12-10 07:14:51
4880764 beginyour.com 0 No Rank 2011-12-10 07:14:52
4880765 beechmontmitsubishi.com 0 10167583 2011-12-10 07:14:54
4880766 behls.net 0 No Rank 2011-12-10 07:14:54
4880767 bagliore-hinode.com 0 No Rank 2011-12-10 07:14:56
4880768 bluesuncatering.com 0 No Rank 2011-12-10 07:14:56
4880769 bellablissett.com 0 17187065 2011-12-10 07:15:00
4880770 stlouisboatshow.com 0 7721409 2011-12-10 07:15:00
4880771 rockchurchofatl.org 0 11426625 2011-12-10 07:15:01
4880772 bellalucekennel.com 0 No Rank 2011-12-10 07:15:02
4880773 bellsandwhistlesservices.com 0 No Rank 2011-12-10 07:15:09
4880774 ht-hydrotechnik.com 0 25511968 2011-12-10 07:15:10
4880775 bellybuttonbirth.com 0 No Rank 2011-12-10 07:15:11
4880776 shinmay.metroer.com 0 32646 2011-12-10 07:15:12
4880777 bendholdings.com 0 No Rank 2011-12-10 07:15:17
4880778 sorsogontourism.com 0 8639117 2011-12-10 07:15:17
4880779 benchjockey.net 0 No Rank 2011-12-10 07:15:19
4880780 shootfortuesday.com 0 No Rank 2011-12-10 07:15:20
4880781 benefitsofyoganow.com 0 No Rank 2011-12-10 07:15:22
4880782 bendixen-netgalleri.dk 0 4034976 2011-12-10 07:15:23
4880783 benjaminblak.com 0 8158650 2011-12-10 07:15:26
4880784 benjamin-plumbing-supply.com 0 No Rank 2011-12-10 07:15:27
4880785 benlomondelectric.com 0 No Rank 2011-12-10 07:15:29
4880786 lifestyle-lifes.blogspot.com 0 No Rank 2011-12-10 07:15:30
4880787 bensecret.com 0 3430872 2011-12-10 07:15:33
4880788 berco.us 0 No Rank 2011-12-10 07:15:33
4880789 giftcardchoices.com 0 No Rank 2011-12-10 07:15:35
4880790 bermudafa.com 0 2549848 2011-12-10 07:15:39
4880791 bertsports.com 0 No Rank 2011-12-10 07:15:42
4880792 besharah.ca 0 22129413 2011-12-10 07:15:43
4880793 farfurniture.com 0 No Rank 2011-12-10 07:15:44
4880794 murataya-ryokan.com 0 26653900 2011-12-10 07:15:45
4880795 ageconstruction.com 0 No Rank 2011-12-10 07:15:45
4880796 home.guan-guang.com 0 No Rank 2011-12-10 07:15:46
4880797 bespokecuisine.com 0 4834680 2011-12-10 07:15:47
4880798 barcelona.art49.com 0 1938705 2011-12-10 07:15:48
4880799 best--breast-augmentation-sites.com 0 15132585 2011-12-10 07:15:50
4880800 best-gbg.com 0 No Rank 2011-12-10 07:15:54
4880801 best-chainsaws-reviews.com 0 9973225 2011-12-10 07:15:54
4880802 skiteam-achental.de 0 No Rank 2011-12-10 07:15:55
4880803 loxwoodclinic.co.uk 0 No Rank 2011-12-10 07:15:57
4880804 felinefriendsnh.com 0 4694792 2011-12-10 07:15:59
4880805 bestbusinessaustralia.com 0 20453856 2011-12-10 07:15:59
4880806 pokoje-swieradow.pl 0 No Rank 2011-12-10 07:16:00
4880807 bestexperienceav.com 0 No Rank 2011-12-10 07:16:01
4880808 bestmp3.mobi 0 No Rank 2011-12-10 07:16:05
4880809 bestpennyshareguide.com 0 No Rank 2011-12-10 07:16:10
4880810 bestpricereview.com 0 No Rank 2011-12-10 07:16:10
4880811 bestwomenwidewidthshoes.com 0 No Rank 2011-12-10 07:16:18
4880812 bestwebvitamins.com 0 No Rank 2011-12-10 07:16:18
4880813 akademiapodwodna.pl 0 7220172 2011-12-10 07:16:20
4880814 betanie.eu 0 No Rank 2011-12-10 07:16:22
4880815 stuttgart.art49.com 0 1938705 2011-12-10 07:16:29
4880816 gasnaturalfenosa.md 0 8900150 2011-12-10 07:16:29
4880817 bethesdabiblechapel.net 0 No Rank 2011-12-10 07:16:30
4880818 bethesdacourierservice.com 0 No Rank 2011-12-10 07:16:33
4880819 betasquaretechnologies.in 0 4848671 2011-12-10 07:16:34
4880820 jemappliances.co.uk 0 25599499 2011-12-10 07:16:34
4880821 freegiveawaylist.com 0 No Rank 2011-12-10 07:16:35
4880822 bethlehemctr.org 0 No Rank 2011-12-10 07:16:36
4880823 betterbiltbldgs.com 0 No Rank 2011-12-10 07:16:40
4880824 geno.raiffeisen.com 0 377010 2011-12-10 07:16:43
4880825 bettermarriagesfl.org 0 No Rank 2011-12-10 07:16:43
4880826 jinchang.suiyifa.com 0 271062 2011-12-10 07:16:46
4880827 bettypeters.com 0 No Rank 2011-12-10 07:16:46
4880828 webmail.bpjbp.qc.ca 0 No Rank 2011-12-10 07:16:47
4880829 bethmariephotography.com 0 No Rank 2011-12-10 07:16:47
4880830 historicalboots.com 0 No Rank 2011-12-10 07:16:52
4880831 beverlyhillskarateacademy.com 0 No Rank 2011-12-10 07:16:54
4880832 woodsstrategies.com 0 No Rank 2011-12-10 07:16:54
4880833 bevsswimschool.com 0 No Rank 2011-12-10 07:16:56
4880834 home.raiffeisen.com 0 377010 2011-12-10 07:16:56
4880835 beykirch.net 0 No Rank 2011-12-10 07:17:02
4880836 beyerbrown.com 0 18486281 2011-12-10 07:17:02
4880837 web.cwbuecheler.com 0 No Rank 2011-12-10 07:17:04
4880838 archiwebhosting.com 0 25837330 2011-12-10 07:17:07
4880839 bfdr-bd.com 0 No Rank 2011-12-10 07:17:10
4880840 neznaikinvka.md6.ru 0 1140595 2011-12-10 07:17:12
4880841 laczarvineyards.com 0 19522683 2011-12-10 07:17:12
4880842 beyondfleas.com 0 No Rank 2011-12-10 07:17:12
4880843 airlineashtrays.com 0 19366454 2011-12-10 07:17:13
4880844 dani-thompson.co.uk 0 No Rank 2011-12-10 07:17:13
4880845 bg.zdarma-ruleta.cz 0 167990 2011-12-10 07:17:14
4880846 bgellerpaintings.com 0 No Rank 2011-12-10 07:17:18
4880847 fascia-therapie.com 0 18833455 2011-12-10 07:17:18
4880848 bhakti-sastri.com 0 225428 2011-12-10 07:17:20
4880849 godisafrog.com 0 No Rank 2011-12-10 07:17:21
4880850 ostseeferienland.de 0 6001856 2011-12-10 07:17:22
4880851 bhatgi.com 0 No Rank 2011-12-10 07:17:23
4880852 bharatwiki.com 0 25894050 2011-12-10 07:17:23
4880853 heavnlyjelybean.com 0 No Rank 2011-12-10 07:17:24
4880854 beach-dwellings.com 0 No Rank 2011-12-10 07:17:25
4880855 bhcoinclub.org 0 11020016 2011-12-10 07:17:26
4880856 bmw.catskillweb.net 0 10845006 2011-12-10 07:17:26
4880857 bicolusa.com 0 No Rank 2011-12-10 07:17:30
4880858 harrisconsultancy.com 0 No Rank 2011-12-10 07:17:30
4880859 biggreenjug.com 0 No Rank 2011-12-10 07:17:35
4880860 hanoverproperty.com 0 No Rank 2011-12-10 07:17:37
4880861 bigislandlavaboat.com 0 No Rank 2011-12-10 07:17:38
4880862 aire-technology.com 0 No Rank 2011-12-10 07:17:38
4880863 healthandparentingtips.com 0 21618684 2011-12-10 07:17:38
4880864 kimblesaviation.com 0 No Rank 2011-12-10 07:17:39
4880865 bigdaddyschrome.com 0 No Rank 2011-12-10 07:17:40
4880866 loschupacharkas.com 0 4363037 2011-12-10 07:17:40
4880867 bigranchfilms.com 0 No Rank 2011-12-10 07:17:42
4880868 heuvinck.com 0 No Rank 2011-12-10 07:17:42
4880869 huisartsvaneunen.nl 0 No Rank 2011-12-10 07:17:45
4880870 bigredpostpuller.com 0 22137599 2011-12-10 07:17:47
4880871 bilalbros.com 0 No Rank 2011-12-10 07:17:48
4880872 kennemorerealty.com 0 No Rank 2011-12-10 07:17:48
4880873 tarmacconstruct.com 0 No Rank 2011-12-10 07:17:50
4880874 hostessunderground.org 0 No Rank 2011-12-10 07:17:52
4880875 bilas-brist.com 0 No Rank 2011-12-10 07:17:53
4880876 bilingualbeginningselc.com 0 No Rank 2011-12-10 07:17:53
4880877 lifestylesecret.com 0 23771275 2011-12-10 07:17:55
4880878 ziplinecreative.com 0 No Rank 2011-12-10 07:17:56
4880879 billeder.scanhomesthailand.dk 0 No Rank 2011-12-10 07:17:57
4880880 wowskins.mmorgy.com 0 7283357 2011-12-10 07:17:57
4880881 billmap.com 0 7095430 2011-12-10 07:17:58
4880882 absi.iqservices.com 0 3293510 2011-12-10 07:17:58
4880883 billsarchery.net 0 No Rank 2011-12-10 07:18:00
4880884 billstocker.com 0 No Rank 2011-12-10 07:18:02
4880885 billyjoebob.com 0 No Rank 2011-12-10 07:18:07
4880886 drjamesjeffries.com 0 No Rank 2011-12-10 07:18:09
4880887 binda.net 0 No Rank 2011-12-10 07:18:11
4880888 home.powerapple.com 0 14630 2011-12-10 07:18:11
4880889 billymacleod.com 0 22752186 2011-12-10 07:18:13
4880890 computerdoktor24.de 0 24662352 2011-12-10 07:18:13
4880891 bingofantastic.com 0 No Rank 2011-12-10 07:18:15
4880892 ideasforex.com 0 9032768 2011-12-10 07:18:16
4880893 indiaprivatechauffeur.com 0 No Rank 2011-12-10 07:18:17
4880894 binnish.net 0 1853412 2011-12-10 07:18:19
4880895 binhtay.info 0 28117231 2011-12-10 07:18:22
4880896 settlement.acas.org 0 6428977 2011-12-10 07:18:22
4880897 nhatlinhsetraco.com 0 No Rank 2011-12-10 07:18:22
4880898 infertiliteit.net 0 4137311 2011-12-10 07:18:23
4880899 biofueldepot.ca 0 No Rank 2011-12-10 07:18:24
4880900 biogeography.unibas.ch 0 51412 2011-12-10 07:18:28
4880901 biomarineinc.com 0 7027777 2011-12-10 07:18:31
4880902 biondobike.hu 0 17700858 2011-12-10 07:18:33
4880903 iusscaa.org 0 7610829 2011-12-10 07:18:33
4880904 youreverydaydad.com 0 21949899 2011-12-10 07:18:35
4880905 bionic-fuel-technologies.org 0 No Rank 2011-12-10 07:18:36
4880906 clevelandbra61.xanga.com 0 3364 2011-12-10 07:18:36
4880907 soufdc.com 0 7335891 2011-12-10 07:18:37
4880908 biovenom.com 0 5102406 2011-12-10 07:18:37
4880909 irc.bunglefever.com 0 3629235 2011-12-10 07:18:38
4880910 daliengineering.com 0 No Rank 2011-12-10 07:18:39
4880911 bip.pzzd.zgo.pl 0 600559 2011-12-10 07:18:39
4880912 wrightsregister.com 0 No Rank 2011-12-10 07:18:40
4880913 bbs.bunglefever.com 0 3629235 2011-12-10 07:18:41
4880914 bip.rychwal.pl 0 22047299 2011-12-10 07:18:41
4880915 birchtreedesigns.com 0 No Rank 2011-12-10 07:18:43
4880916 kantoujyuuken.com 0 No Rank 2011-12-10 07:18:43
4880917 birdinitiative.org 0 21020055 2011-12-10 07:18:44
4880918 itricityhosting.com 0 18015048 2011-12-10 07:18:45
4880919 accentlimestone.com 0 11226601 2011-12-10 07:18:47
4880920 katstuffcats.com 0 No Rank 2011-12-10 07:18:48
4880921 biscuitsandbluegrass.com 0 No Rank 2011-12-10 07:18:50
4880922 ontslagzaken.tql.nl 0 1201732 2011-12-10 07:18:51
4880923 biterite.ae 0 9830275 2011-12-10 07:18:51
4880924 inallthingspray.com 0 No Rank 2011-12-10 07:18:53
4880925 bitterlin.info 0 No Rank 2011-12-10 07:18:54
4880926 bittrix.com 0 No Rank 2011-12-10 07:18:54
4880927 yk.soufdc.com 0 7335891 2011-12-10 07:18:55
4880928 kenyaconcierge.com 0 5672235 2011-12-10 07:18:55
4880929 dorianomarcucci.com 0 7379080 2011-12-10 07:18:56
4880930 biuroprasowe.pl 0 10147983 2011-12-10 07:18:58
4880931 keroyon-champ.com 0 No Rank 2011-12-10 07:18:58
4880932 bizenyaki-life.com 0 No Rank 2011-12-10 07:19:01
4880933 sandcastlemagic.com 0 No Rank 2011-12-10 07:19:03
4880934 mavericksun.com 0 4443137 2011-12-10 07:19:04
4880935 innsbruck.art49.com 0 1938705 2011-12-10 07:19:08
4880936 biznetclub.com 0 No Rank 2011-12-10 07:19:08
4880937 natursteine-blog.de 0 722428 2011-12-10 07:19:10
4880938 madspiders.com 0 8976004 2011-12-10 07:19:10
4880939 chicagoboatshow.com 0 1702827 2011-12-10 07:19:11
4880940 boatshownorwalk.com 0 2523068 2011-12-10 07:19:12
4880941 bizimemlakofisi.net 0 27458598 2011-12-10 07:19:13
4880942 midamericadata.com 0 No Rank 2011-12-10 07:19:15
4880943 noisecancellingheadphone.tk 0 No Rank 2011-12-10 07:19:15
4880944 suat.kucukaydin.net 0 27852365 2011-12-10 07:19:19
4880945 moustache.nu 0 22003806 2011-12-10 07:19:20
4880946 warrensteinborn.com 0 No Rank 2011-12-10 07:19:21
4880947 bravolespompiers.fr 0 22208524 2011-12-10 07:19:26
4880948 blackanddeckerweedwacker.com 0 No Rank 2011-12-10 07:19:28
4880949 blackhillsgoldring.com 0 No Rank 2011-12-10 07:19:28
4880950 giftshoprecords.com 0 No Rank 2011-12-10 07:19:29
4880951 engage.isdproductions.com 0 4371481 2011-12-10 07:19:29
4880952 fmarredamentisrl.it 0 No Rank 2011-12-10 07:19:29
4880953 furmanarchitects.com 0 No Rank 2011-12-10 07:19:30
4880954 newerasupply.com 0 12323751 2011-12-10 07:19:31
4880955 blackmule.net 0 No Rank 2011-12-10 07:19:31
4880956 wingspanbusiness.com 0 No Rank 2011-12-10 07:19:32
4880957 blacknightpa.com 0 No Rank 2011-12-10 07:19:33
4880958 moustafa-arafa.blogspot.com 0 2566060 2011-12-10 07:19:34
4880959 blackopschallenge.com 0 No Rank 2011-12-10 07:19:35
4880960 blairwattproject.com 0 No Rank 2011-12-10 07:19:40
4880961 vipc2c.com 0 No Rank 2011-12-10 07:19:42
4880962 blazincajunmountedshooters.com 0 No Rank 2011-12-10 07:19:43
4880963 paperjewels.com 0 7878202 2011-12-10 07:19:45
4880964 adobeproreader10.com 0 No Rank 2011-12-10 07:19:46
4880965 incense-direct.co.uk 0 No Rank 2011-12-10 07:19:47
4880966 skienpartycentrum.nl 0 No Rank 2011-12-10 07:19:48
4880967 bliss-images.com 0 No Rank 2011-12-10 07:19:49
4880968 mucintranphat.com.vn 0 10628042 2011-12-10 07:19:51
4880969 cultureforchange.org 0 No Rank 2011-12-10 07:19:52
4880970 spectrumsciences.com 0 No Rank 2011-12-10 07:19:54
4880971 blivmedlem.dlfa.dk 0 1610580 2011-12-10 07:19:55
4880972 smartshopperguru.com 0 No Rank 2011-12-10 07:19:55
4880973 vogue.rentts.org 0 5051982 2011-12-10 07:19:55
4880974 northeastclimate.com 0 No Rank 2011-12-10 07:20:00
4880975 gregoryinsurance.com 0 No Rank 2011-12-10 07:20:02
4880976 intercomventures.com 0 No Rank 2011-12-10 07:20:03
4880977 onlinespelletjes.com 0 No Rank 2011-12-10 07:20:06
4880978 kwatery-swieradow.pl 0 No Rank 2011-12-10 07:20:07
4880979 0335.fy808.com 0 123316 2011-12-10 07:20:07
4880980 singleplussingle.com 0 No Rank 2011-12-10 07:20:09
4880981 blog.spoony.ch 0 No Rank 2011-12-10 07:20:09
4880982 asmallshieldmusic.ca 0 No Rank 2011-12-10 07:20:12
4880983 housesearchwatch.com 0 No Rank 2011-12-10 07:20:12
4880984 blogadsl.com 0 992342 2011-12-10 07:20:15
4880985 bloggerinsight.com 0 2719353 2011-12-10 07:20:20
4880986 bavarian-board.co.uk 0 1737138 2011-12-10 07:20:21
4880987 brugtever.somweb.com 0 No Rank 2011-12-10 07:20:21
4880988 blairconstable.com 0 No Rank 2011-12-10 07:20:26
4880989 blucanarystationery.com 0 No Rank 2011-12-10 07:20:26
4880990 jouweigenwebshop.com 0 No Rank 2011-12-10 07:20:27
4880991 legazpicitywater.com 0 No Rank 2011-12-10 07:20:29
4880992 bayphotomonterey.com 0 14209201 2011-12-10 07:20:30
4880993 shop.wattlecreek.com 0 5186590 2011-12-10 07:20:32
4880994 piulibripiuliberi.it 0 338988 2011-12-10 07:20:33
4880995 blueandgoldrealty.com 0 21669106 2011-12-10 07:20:36
4880996 stjohnsboyertown.org 0 No Rank 2011-12-10 07:20:37
4880997 loslobos.setlist.com 0 752053 2011-12-10 07:20:38
4880998 blueblaze.com 0 9935644 2011-12-10 07:20:39
4880999 bratislava-inline.sk 0 20969536 2011-12-10 07:20:41